Weather History for Los Alamos, NM

Change the Weather History Date:

Thursday, April 10, 2014

  Actual Average Record
Temperature  
Mean Temperature 60 °F -  
Max Temperature 70 °F 59 °F 74 °F (1972)
Min Temperature 49 °F 32 °F 19 °F (1959)
Degree Days  
Heating Degree Days 6    
Growing Degree Days 10 (Base 50)    
Moisture  
Dew Point 5 °F    
Average Humidity 11    
Maximum Humidity 16    
Minimum Humidity 8    
Precipitation  
Precipitation 0.00 in - - ()
Sea Level Pressure  
Sea Level Pressure 30.16 in    
Wind  
Wind Speed 6 mph (West)    
Max Wind Speed 22 mph    
Max Gust Speed 30 mph    
Visibility 10 miles    
Events      
Averages and records for this station are not official NWS values.
T = Trace of Precipitation, MM = Missing Value Source: NWS Daily Summary

Daily Weather History Graph

Daily Weather History Graph

Search for Another Location

Airport:

Trip Planner

Search our weather history database for the weather conditions in past years. The results will help you decide how hot, cold, wet, or windy it might be!

Date:

Astronomy

Apr. 10, 2014 Rise Set
Actual Time 6:38 AM MDT 7:34 PM MDT
Civil Twilight 6:12 AM MDT 8:00 PM MDT
Nautical Twilight 5:41 AM MDT 8:31 PM MDT
Astronomical Twilight 5:09 AM MDT 9:03 PM MDT
Moon 3:28 PM MDT (4/10) 3:54 AM MDT (4/10)
Length of Visible Light 13h 47m
Length of Day
12h 55m
Waxing Gibbous, 80% of the Moon is Illuminated
Apr 10
Waxing Gibbous
Apr 15
Full
Apr 22
Last Quarter
Apr 29
New
May 6
First Quarter

Hourly Weather History & Observations

Time (MDT) Temp. Dew Point Humidity Pressure Visibility Wind Dir Wind Speed Gust Speed Precip Events Conditions
12:15 AM 58.5 °F 8.4 °F 14% 30.17 in 10.0 mi WNW 6.9 mph - N/A   Clear
12:35 AM 58.1 °F 8.4 °F 14% 30.17 in 10.0 mi WNW 4.6 mph - N/A   Clear
12:55 AM 57.9 °F 8.4 °F 14% 30.17 in 10.0 mi West 5.8 mph - N/A   Clear
1:15 AM 57.9 °F 7.9 °F 14% 30.16 in 10.0 mi Calm Calm - N/A   Clear
1:35 AM 59.7 °F 7.3 °F 12% 30.16 in 10.0 mi WSW 3.5 mph - N/A   Clear
1:55 AM 56.5 °F 7.5 °F 14% 30.16 in 10.0 mi SSW 3.5 mph - N/A   Clear
2:15 AM 55.8 °F 7.0 °F 14% 30.15 in 10.0 mi South 6.9 mph - N/A   Clear
2:35 AM 55.6 °F 5.5 °F 13% 30.15 in 10.0 mi SSW 6.9 mph - N/A   Clear
2:55 AM 54.5 °F 4.3 °F 13% 30.15 in 10.0 mi SW 6.9 mph - N/A   Clear
3:15 AM 53.1 °F 4.8 °F 14% 30.15 in 10.0 mi Calm Calm - N/A   Clear
3:35 AM 54.1 °F 3.0 °F 13% 30.15 in 10.0 mi SSW 8.1 mph - N/A   Clear
3:55 AM 55.0 °F 2.5 °F 12% 30.15 in 10.0 mi SW 6.9 mph - N/A   Clear
4:15 AM 56.3 °F 1.0 °F 11% 30.15 in 10.0 mi WNW 8.1 mph - N/A   Clear
4:35 AM 55.6 °F 1.2 °F 11% 30.15 in 10.0 mi NNW 3.5 mph - N/A   Clear
4:55 AM 57.0 °F -0.9 °F 9% 30.15 in 10.0 mi NNW 3.5 mph - N/A   Clear
5:15 AM 56.5 °F -1.3 °F 10% 30.15 in 10.0 mi Calm Calm - N/A   Clear
5:35 AM 56.7 °F -2.9 °F 9% 30.15 in 10.0 mi Calm Calm - N/A   Clear
5:55 AM 55.4 °F -2.2 °F 9% 30.16 in 10.0 mi Calm Calm - N/A   Clear
6:15 AM 52.9 °F -0.9 °F 11% 30.17 in 10.0 mi Calm Calm - N/A   Clear
6:35 AM 53.2 °F -1.5 °F 11% 30.17 in 10.0 mi NNE 3.5 mph - N/A   Clear
6:55 AM 52.5 °F -0.6 °F 11% 30.18 in 10.0 mi Calm Calm - N/A   Clear
7:15 AM 53.8 °F -3.1 °F 10% 30.18 in 10.0 mi NNW 3.5 mph - N/A   Clear
7:35 AM 53.4 °F -2.4 °F 10% 30.19 in 10.0 mi Calm Calm - N/A   Clear
7:55 AM 49.6 °F 3.0 °F 15% 30.19 in 10.0 mi Calm Calm - N/A   Clear
8:15 AM 52.7 °F 5.9 °F 15% 30.19 in 10.0 mi Calm Calm - N/A   Clear
8:35 AM 54.3 °F -1.7 °F 10% 30.19 in 10.0 mi Calm Calm - N/A   Clear
8:55 AM 57.2 °F 1.2 °F 10% 30.19 in 10.0 mi SW 3.5 mph - N/A   Clear
9:15 AM 56.1 °F 4.5 °F 13% 30.20 in 10.0 mi Calm Calm - N/A   Clear
9:35 AM 56.5 °F 8.1 °F 14% 30.20 in 10.0 mi ENE 5.8 mph - N/A   Clear
9:55 AM 58.5 °F 11.5 °F 16% 30.20 in 10.0 mi NE 5.8 mph - N/A   Clear
10:15 AM 59.2 °F 7.7 °F 13% 30.21 in 10.0 mi NNE 6.9 mph - N/A   Clear
10:35 AM 58.6 °F 6.6 °F 13% 30.21 in 10.0 mi NE 6.9 mph - N/A   Clear
10:55 AM 59.7 °F 10.4 °F 14% 30.21 in 10.0 mi NE 6.9 mph - N/A   Clear
11:15 AM 60.3 °F 7.2 °F 12% 30.21 in 10.0 mi ENE 8.1 mph - N/A   Clear
11:35 AM 60.4 °F 6.1 °F 12% 30.21 in 10.0 mi ENE 8.1 mph - N/A   Clear
11:55 AM 61.0 °F 5.2 °F 11% 30.20 in 10.0 mi East 4.6 mph - N/A   Clear
12:15 PM 62.2 °F 6.4 °F 11% 30.19 in 10.0 mi NNE 6.9 mph - N/A   Clear
12:35 PM 63.3 °F 6.4 °F 11% 30.19 in 10.0 mi ENE 5.8 mph - N/A   Clear
12:55 PM 64.2 °F 8.2 °F 11% 30.18 in 10.0 mi East 8.1 mph - N/A   Clear
1:15 PM 64.6 °F 7.3 °F 11% 30.18 in 10.0 mi ESE 3.5 mph - N/A   Clear
1:35 PM 66.9 °F 9.3 °F 11% 30.17 in 10.0 mi ENE 3.5 mph - N/A   Clear
1:55 PM 68.5 °F 9.9 °F 10% 30.15 in 10.0 mi SW 8.1 mph 23.0 mph N/A   Clear
2:15 PM 69.1 °F 10.6 °F 10% 30.15 in 10.0 mi West 21.9 mph - N/A   Clear
2:35 PM 68.9 °F 7.9 °F 9% 30.14 in 10.0 mi NW 9.2 mph 23.0 mph N/A   Clear
2:55 PM 68.7 °F 8.2 °F 9% 30.13 in 10.0 mi WNW 11.5 mph 21.9 mph N/A   Clear
3:15 PM 70.0 °F 8.8 °F 9% 30.13 in 10.0 mi West 9.2 mph 19.6 mph N/A   Clear
3:35 PM 69.4 °F 8.1 °F 9% 30.11 in 10.0 mi SW 15.0 mph 21.9 mph N/A   Clear
3:55 PM 69.8 °F 6.6 °F 9% 30.11 in 10.0 mi West 17.3 mph 26.5 mph N/A   Clear
4:15 PM 69.1 °F 6.8 °F 9% 30.11 in 10.0 mi WNW 11.5 mph - N/A   Clear
4:35 PM 69.6 °F 7.7 °F 9% 30.11 in 10.0 mi WSW 15.0 mph 26.5 mph N/A   Clear
4:55 PM 69.8 °F 8.1 °F 9% 30.10 in 10.0 mi WSW 9.2 mph 19.6 mph N/A   Clear
5:15 PM 68.2 °F 7.0 °F 9% 30.11 in 10.0 mi West 13.8 mph 29.9 mph N/A   Clear
5:35 PM 68.9 °F 7.2 °F 9% 30.11 in 10.0 mi WNW 10.4 mph 23.0 mph N/A   Clear
5:55 PM 68.2 °F 5.0 °F 8% 30.11 in 10.0 mi WSW 17.3 mph 26.5 mph N/A   Clear
6:15 PM 67.1 °F 3.9 °F 8% 30.11 in 10.0 mi West 15.0 mph 24.2 mph N/A   Clear
6:35 PM 66.4 °F 3.7 °F 8% 30.11 in 10.0 mi West 13.8 mph 24.2 mph N/A   Clear
6:55 PM 66.2 °F 3.9 °F 9% 30.12 in 10.0 mi West 11.5 mph 24.2 mph N/A   Clear
7:15 PM 64.8 °F 3.9 °F 9% 30.13 in 10.0 mi WSW 9.2 mph 17.3 mph N/A   Clear
7:35 PM 63.1 °F 4.8 °F 10% 30.13 in 10.0 mi WSW 5.8 mph - N/A   Clear
7:55 PM 62.4 °F 4.1 °F 10% 30.14 in 10.0 mi Calm Calm - N/A   Clear
8:15 PM 63.0 °F 3.7 °F 9% 30.14 in 10.0 mi Calm Calm - N/A   Clear
8:35 PM 61.7 °F 4.1 °F 10% 30.15 in 10.0 mi Calm Calm - N/A   Clear
8:55 PM 61.5 °F 4.3 °F 10% 30.16 in 10.0 mi Calm Calm - N/A   Clear
9:15 PM 60.4 °F 4.1 °F 11% 30.17 in 10.0 mi Calm Calm - N/A   Clear
9:35 PM 60.8 °F 4.5 °F 11% 30.18 in 10.0 mi WNW 5.8 mph - N/A   Clear
9:55 PM 60.3 °F 3.2 °F 10% 30.18 in 10.0 mi Calm Calm - N/A   Clear
10:15 PM 58.3 °F 3.7 °F 11% 30.19 in 10.0 mi WNW 3.5 mph - N/A   Clear
10:35 PM 59.5 °F 2.8 °F 10% 30.19 in 10.0 mi Calm Calm - N/A   Clear
10:55 PM 57.0 °F 3.4 °F 12% 30.19 in 10.0 mi WNW 3.5 mph - N/A   Clear
11:15 PM 56.1 °F 3.4 °F 12% 30.19 in 10.0 mi West 10.4 mph - N/A   Clear
11:35 PM 55.4 °F 3.7 °F 12% 30.18 in 10.0 mi West 10.4 mph - N/A   Clear
11:55 PM 55.2 °F 3.6 °F 12% 30.18 in 10.0 mi West 10.4 mph - N/A   Clear